Location: Cabras
(39.9167°N, 8.5333°E)
Time: 11:45:29
(UTC+00:00)

Daily predictions for brighter satellites

Satellite Brightness Start Highest point End
(mag) Time Altitude Azimuth Time Altitude Azimuth Time Altitude Azimuth
Cosmos 2278 Rocket 4.2 19:08:42 10° NW 19:13:21 27° WSW 19:18:00 10° SSW
CZ-4B R/B 3.2 19:09:42 10° SSE 19:15:03 88° ENE 19:20:23 10° NNW
Cosmos 1464 Rocket 4.1 19:12:00 10° N 19:18:18 88° E 19:24:29 10° S
Cosmos 1515 4.1 19:15:10 10° SSW 19:18:36 59° W 19:22:03 10° N
Feng Yun 1-1 Rocket 4.5 19:16:26 10° SSE 19:22:21 89° ENE 19:28:18 10° NNW
Cosmos 2056 Rocket 3.7 19:18:22 10° NNW 19:23:42 63° ENE 19:28:55 10° SSE
Cosmos 1624 Rocket 4.1 19:19:12 10° NNW 19:24:20 61° ENE 19:29:29 10° SSE
Terra 3.8 19:22:06 10° E 19:24:26 14° ENE 19:26:47 10° NNE
Cosmos 921 Rocket 3.1 19:22:23 10° S 19:26:49 66° ESE 19:31:16 10° NNE
Cosmos 2297 3.9 19:22:11 10° NNW 19:27:52 60° ENE 19:33:28 10° SE
CARTOSAT-1 3.5 19:24:29 10° SSE 19:28:43 88° E 19:33:00 10° NNW
Lacrosse 5 2.6 19:24:41 10° NW 19:29:37 50° SW 19:34:32 10° SSE
Centaur D AC-29 3.5 19:28:12 10° SSW 19:31:58 21° SE 19:40:26 10° E
Lacrosse 5 rocket 4.5 19:31:13 10° NW 19:33:23 14° NNW 19:35:34 10° N
ERS-1 Rocket 4.4 19:32:32 10° ESE 19:36:18 23° ENE 19:40:11 10° NNE
Cosmos 494 Rocket 3.9 19:33:40 10° S 19:38:41 63° ESE 19:43:44 10° NNE
CZ-4C R/B 3.5 19:38:21 10° NNE 19:42:08 51° E 19:46:03 10° S
CSL-04 Rocket 3.9 19:37:51 10° S 19:43:06 69° WSW 19:48:23 10° NNW
Cosmos 1743 2.9 19:41:25 10° N 19:44:54 45° E 19:47:38 15° SSE
Aureole 3 Rocket 3.6 19:40:37 10° N 19:45:05 68° E 19:51:22 10° SSE
USA 186 3.8 19:43:11 10° SSW 19:45:55 26° W 19:48:43 10° NW
Okean-O 2.7 19:42:03 11° SSE 19:46:15 63° ENE 19:50:37 10° N
SL-16 R/B 3.6 19:42:28 10° SW 19:47:49 42° WNW 19:53:13 10° N
Cosmos 1603 4.2 19:45:33 10° S 19:50:44 39° ESE 19:55:59 10° NE
SPOT 5 3.1 19:47:46 15° SE 19:51:19 45° ENE 19:55:31 10° N
Cosmos 1634 Rocket 4.2 19:45:23 10° N 19:51:32 55° E 19:56:55 13° SSE
Cosmos 1048 Rocket 3.9 19:50:17 10° S 19:55:22 64° ESE 20:00:27 10° NNE
Cosmos 2369 Rocket 2.2 19:52:34 10° NNW 19:58:12 79° ENE 20:02:40 16° SSE
Cosmos 1656 Rocket 3.7 19:53:02 10° NNW 19:58:31 78° WSW 20:03:23 14° SSE
Cosmos 2263 4.4 19:53:35 10° NNW 19:59:14 60° ENE 20:03:25 18° SE
Cosmos 44 4.1 19:56:16 10° NW 20:00:44 43° WSW 20:04:34 12° S
Meteor 1-14 Rocket 4.4 19:57:59 10° N 20:03:52 67° E 20:08:39 16° SSE
Meteor 2-6 Rocket 4.1 19:59:52 10° S 20:05:28 84° E 20:10:58 10° N
Cosmos 2084 4.1 20:04:08 10° NW 20:07:40 39° WSW 20:10:14 17° S
MOS 1 4.3 20:04:16 13° SSE 20:09:23 89° WSW 20:15:04 10° NNW
USA 229 DEB 4.0 20:02:33 10° NNW 20:10:10 84° ENE 20:16:16 20° SE
USA 229 4.0 20:02:39 10° NNW 20:10:17 83° ENE 20:16:23 20° SE
SeaSat 1 4.3 20:10:40 10° SSW 20:14:41 25° WSW 20:18:43 10° NW
Cosmos 1536 3.6 20:13:02 10° NNE 20:16:37 34° ENE 20:17:51 27° ESE
Cosmos 1110 Rocket 4.3 20:14:02 10° N 20:19:16 55° ENE 20:22:09 26° SE
Cosmos 1726 1.9 20:17:49 10° N 20:20:51 49° E 20:21:30 40° ESE
USA 306 3.9 20:19:10 10° NNW 20:22:39 33° NNE 20:24:42 20° E
USA 59 Rocket 2.3 20:21:07 10° N 20:23:40 16° NE 20:26:33 10° E
Cosmos 1943 3.5 20:19:00 10° SSW 20:24:39 68° WNW 20:30:19 10° NNE
IRS-1C Rocket 4.1 20:21:18 21° SSE 20:24:58 90° E 20:30:15 10° NNW
BREEZE-M DEB (TANK) 4.2 20:05:08 10° SW 20:25:33 64° SE 20:30:05 10° ENE
Cosmos 1842 Rocket 3.7 20:21:47 11° S 20:26:01 78° W 20:30:26 10° N
Spot 2 Rocket 3.8 20:25:05 27° SE 20:27:34 51° ENE 20:32:26 10° N
Resurs 01 Rocket 4.0 20:25:09 10° SW 20:28:18 19° W 20:31:27 10° NW
IRS-1A Rocket 4.2 20:24:47 21° SSE 20:28:39 89° ENE 20:34:14 10° NNW
Cosmos 1733 4.5 20:26:22 10° NNE 20:29:09 22° ENE 20:29:15 21° ENE
USA 276 2.9 20:27:54 10° WNW 20:29:24 26° WSW 20:29:24 26° WSW
ARGOS Delta rocket 3.9 20:27:17 25° SSE 20:30:12 76° ENE 20:35:00 10° N
Okean 3 Rocket 3.5 20:26:26 10° N 20:30:49 85° W 20:33:10 27° S
ISS -3.6 20:29:45 10° NW 20:33:06 63° NE 20:33:56 44° E
Landsat 5 4.1 20:34:56 10° NNE 20:38:13 32° E 20:38:13 32° E
SPOT 3 Rocket 3.7 20:36:08 31° SE 20:38:23 56° ENE 20:43:26 10° N
Okean O Rocket 4.1 20:35:33 10° SW 20:38:32 18° W 20:41:32 10° NW
Cosmos 1818 4.5 20:40:46 28° ESE 20:40:46 28° ESE 20:45:19 10° NE
Cosmos 1340 3.8 20:39:20 10° NNE 20:42:01 25° ENE 20:42:01 25° ENE
Meteor 1-27 Rocket 3.7 20:40:55 28° SSE 20:43:46 63° E 20:49:15 10° NNE
Sich 1 3.5 20:39:49 10° N 20:44:00 43° ENE 20:44:54 38° ESE
USA 281 3.8 20:43:30 25° ESE 20:46:55 45° ENE 20:53:07 10° N
Meteor 2-9 Rocket 4.4 20:42:10 10° N 20:47:58 61° ENE 20:50:24 35° SE
Ariane Rocket 2.9 20:48:20 36° SSE 20:50:28 82° ENE 20:55:34 10° N
NOSS 3-3 (C) 4.5 20:50:45 30° ESE 20:50:45 30° ESE 20:55:38 10° NE
MetOp-A 4.4 20:53:25 35° ESE 20:54:28 40° ENE 20:59:01 10° N
GEOS 3 Rocket 3.4 20:55:01 10° NE 21:00:10 70° ESE 21:03:30 22° SSW
Terra 2.0 20:59:36 35° S 21:01:27 64° W 21:06:08 10° NNW
Cosmos 1340 Rocket 2.7 21:03:13 63° S 21:03:50 87° E 21:07:51 10° N
MOS 1 Rocket 3.5 21:02:02 42° SSE 21:03:52 90° E 21:09:12 10° NNW
Cosmos 1452 Rocket 4.1 21:04:21 10° NNW 21:09:24 50° WSW 21:11:26 32° SSW
Cosmos 1092 Rocket 4.4 21:08:35 38° SE 21:10:06 44° E 21:16:02 10° NNE
Cosmos 1743 Rocket 3.4 21:05:51 10° N 21:10:16 80° E 21:10:55 63° SSE
ARIANE 5 R/B 4.3 21:12:44 20° ENE 21:12:58 20° ENE 21:16:08 10° NNE
ERS-1 Rocket 3.9 21:12:27 26° SSW 21:14:46 41° W 21:19:31 10° NNW
Cosmos 2195 Rocket 4.4 21:19:03 46° SSE 21:20:46 65° E 21:26:49 10° NNE
Meteor 2-10 4.2 21:17:11 10° NNW 21:22:37 69° W 21:24:13 44° SSW
Cosmos 1626 4.0 21:24:36 18° NE 21:24:36 18° NE 21:25:44 10° NNE
Nadezhda 4 Rocket 4.1 21:21:16 30° SSW 21:24:27 73° W 21:30:43 10° N
Cosmos 614 Rocket 3.9 21:25:40 45° SSW 21:27:18 85° WNW 21:32:33 10° NNE
Cosmos 1833 Rocket 3.6 21:35:25 33° E 21:35:25 33° E 21:39:40 10° NE
Cosmos 1151 Rocket 3.6 21:37:10 47° WSW 21:37:53 53° W 21:42:07 10° N
Cosmos 1975 3.2 21:39:54 10° N 21:43:09 57° NNE 21:43:09 57° NNE
Cosmos 1328 Rocket 3.8 21:45:12 60° NE 21:45:12 60° NE 21:48:55 10° NNE
FALCON 9 R/B 4.2 21:41:59 10° W 21:48:55 50° S 22:13:35 10° SE
Cosmos 1302 Rocket 4.4 21:47:06 10° NNW 21:52:08 51° WSW 21:52:42 49° SW
Cosmos 1992 Rocket 3.8 21:47:40 10° NNW 21:52:53 77° ENE 21:53:10 74° ESE
USA 306 4.4 21:52:46 10° WNW 21:54:47 25° W 21:54:47 25° W
Cosmos 1656 3.6 21:52:09 10° NNW 21:57:37 68° ENE 21:58:06 64° E
H-2A R/B 3.6 22:02:15 36° NE 22:02:15 36° NE 22:05:31 10° N
Lacrosse 4 Rocket 2.1 21:59:09 10° NNW 22:02:26 51° N 22:02:26 51° N
Cosmos 2026 Rocket 4.1 22:02:10 48° SSW 22:03:57 69° W 22:10:12 10° N
Cosmos 1470 Rocket 4.2 22:00:34 10° N 22:04:11 48° NE 22:04:11 48° NE
NOSS 3-3 (A) 4.1 22:08:04 35° WSW 22:10:16 61° NW 22:16:22 10° NNE
Cosmos 1633 Rocket 3.4 22:07:41 10° NNW 22:11:28 61° NW 22:11:28 61° NW
Orbus 7S? 4.3 22:06:21 10° SW 22:13:47 45° NNE 22:16:01 10° NE
USA 59 Rocket 0.5 22:09:06 10° NW 22:13:06 66° W 22:13:06 66° W
Cosmos 1666 Rocket 4.2 22:09:56 10° NNW 22:13:32 49° WNW 22:13:32 49° WNW
NOSS 2-1 (E) 4.1 22:11:11 10° NW 22:15:08 63° W 22:15:08 63° W
USA 267 4.1 22:11:28 10° ENE 22:15:41 31° E 22:15:41 31° E
Cosmos 1140 Rocket 3.9 22:19:18 51° ENE 22:19:18 51° ENE 22:23:36 10° NNE
Chandra Rocket (1) 4.4 22:04:45 10° W 22:18:40 35° SSW 22:18:40 35° SSW
CZ-2C R/B 4.3 22:19:26 10° N 22:23:38 49° WNW 22:23:38 49° WNW
Cosmos 44 Rocket 4.4 22:20:29 10° NNW 22:24:59 35° NE 22:25:16 35° ENE
ALOS 2 3.8 22:26:21 35° NE 22:26:21 35° NE 22:29:42 10° N
Meteor 2-12 Rocket 4.3 22:29:06 74° SSW 22:29:42 85° W 22:35:54 10° N
BREEZE-M DEB (TANK) 4.4 22:31:06 35° NNE 22:31:06 35° NNE 22:35:03 10° NE
S3M 4.5 22:25:01 10° N 22:31:10 47° ENE 22:31:50 46° E
USA 281 4.1 22:30:22 32° SW 22:31:27 34° WSW 22:37:22 10° NW
Cosmos 724 4.3 22:32:09 68° E 22:32:09 68° E 22:37:36 10° NE
Cosmos 1697 Rocket 3.0 22:29:40 10° NNW 22:35:12 55° ENE 22:35:28 55° ENE
Cosmos 1607 3.9 22:37:14 70° SW 22:38:04 88° WNW 22:44:36 10° NNE
Cosmos 1553 Rocket 3.8 22:33:28 10° N 22:39:33 79° W 22:39:56 75° SW
Cosmos 1980 Rocket 3.4 22:38:23 10° N 22:43:26 31° ENE 22:44:37 29° E
Cosmos 2285 Rocket 3.8 22:44:29 78° SE 22:44:43 80° ESE 22:51:05 10° NNE
Cosmos 407 Rocket 3.8 22:49:43 61° NE 22:49:43 61° NE 22:54:11 10° NNE
ARIANE 5 R/B 4.1 22:50:12 30° WNW 22:50:12 30° WNW 22:53:04 10° NNW
Lacrosse 5 rocket 4.3 22:51:53 10° N 22:53:38 12° NNE 22:55:23 10° NE
Cosmos 2251 Rocket 3.7 23:01:47 67° NNE 23:01:47 67° NNE 23:06:22 10° NNE
COSMOS 2406 4.0 23:02:31 39° E 23:02:31 39° E 23:06:59 10° NE
CZ-3 Stage 3 4.0 22:44:14 10° WSW 23:03:03 44° SSW 23:03:03 44° SSW
Meteor 1-13 Rocket 4.2 23:04:59 85° W 23:05:01 85° W 23:10:57 10° N
Cosmos 2266 Rocket 3.9 23:12:28 70° WSW 23:12:48 71° W 23:19:03 10° N
Cosmos 1655 Rocket 3.9 23:15:56 81° SSE 23:16:13 85° E 23:22:37 10° N
Cosmos 1833 Rocket 4.0 23:17:04 29° W 23:18:31 33° WNW 23:23:34 10° N
Cosmos 2082 Rocket 2.2 23:23:06 73° ENE 23:23:06 73° ENE 23:28:22 10° NNE
Cosmos 883 Rocket 4.3 23:18:02 10° N 23:24:19 90° WSW 23:24:33 84° S
CZ-2C R/B 3.6 23:27:24 56° E 23:27:37 56° ENE 23:39:57 10° N
ATLAS CENTAUR R/B 4.2 23:14:46 10° NW 23:28:27 79° SW 23:31:47 50° SSE
Cosmos 2228 Rocket 4.0 23:31:44 46° NNE 23:31:44 46° NNE 23:34:59 10° N
Meteor 1-22 Rocket 4.2 23:29:05 10° NNW 23:33:54 70° NW 23:33:54 70° NW
Meteor 1-15 Rocket 4.3 23:33:05 10° NNW 23:38:16 68° WNW 23:38:16 68° WNW
H-2A R/B 3.0 23:35:06 10° N 23:38:23 46° NNW 23:38:23 46° NNW
Cosmos 1733 Rocket 4.1 23:36:52 10° N 23:39:58 43° NNE 23:39:58 43° NNE
Meteor 1-21 4.3 23:41:47 72° ENE 23:41:47 72° ENE 23:47:18 10° NNE
Cosmos 1400 Rocket 4.5 23:54:09 31° NNW 23:54:09 31° NNW 23:56:32 10° N
